Regional Weather Roundup
Issued by NWS

Home | Current Version | Previous Version | Graphics & Text | Print | Product List | Glossary On
Versions: 1 2 3 4 5 6 7 8 9 10 11 12 13 14 15 16 17 18 19 20 21 22 23 24 25 26 27 28 29 30 31 32 33 34 35 36 37 38 39 40 41 42 43 44 45 46 47 48 49 50
316
ASUS43 KMKX 211021
RWRWI

WISCONSIN REGIONAL WEATHER ROUNDUP
NATIONAL WEATHER SERVICE MILWAUKEE/SULLIVAN WI
400 AM CST TUE FEB 21 2017

NOTE: "FAIR" INDICATES FEW OR NO CLOUDS BELOW 12,000 FEET WITH NO
SIGNIFICANT WEATHER AND/OR OBSTRUCTIONS TO VISIBILITY.

WIZ001-002-006>008-014>016-023>028-211100-
NORTHWEST WISCONSIN

CITY           SKY/WX    TMP DP  RH WIND       PRES   REMARKS
SUPERIOR ARPT  CLOUDY    37  34  92 SW6       29.80R WCI  32
ASHLAND        PTCLDY    38  35  89 SW14      29.78R WCI  30
HAYWARD        CLOUDY    38  34  85 W5        29.81S WCI  34
SIREN          CLOUDY    37  35  93 W8        29.85R WCI  30
CUMBERLAND     CLOUDY    34  32  93 W8        29.84S WCI  27
RICE LAKE      CLOUDY    38  36  93 SW10      29.87R WCI  30
CHETEK         CLOUDY    37  36  94 NW6       29.86R WCI  33
LADYSMITH      CLOUDY    40  39  97 W9        29.85S WCI  34
EAU CLAIRE     CLOUDY    40  37  89 W7        29.85F
MENOMONIE      CLOUDY    39  37  92 W3        29.88S
NEW RICHMOND   CLOUDY    36  35  96 SW5       29.87S WCI  32
OSCEOLA        NOT AVBL
$$

WIZ003>005-009-010-017-018-211100-
NORTH CENTRAL WISCONSIN

CITY           SKY/WX    TMP DP  RH WIND       PRES   REMARKS
MANITOWISH WTR CLOUDY    41  41 100 W10G17    29.75R
ARBOR VITAE    CLOUDY    44  42  93 W14       29.77R
WOODRUFF       CLOUDY    44  42  93 W14       29.77R
RHINELANDER    MOCLDY    45  43  93 W12       29.77R
EAGLE RIVER    CLOUDY    44  43  97 W9        29.75R
LAND O LAKES   MOCLDY    44  42  94 W9        29.76R
PHILLIPS       CLOUDY    40  39  99 W3        29.80R
TOMAHAWK       MOCLDY    43  42  95 W6        29.80R
MEDFORD        CLOUDY    41  40  95 W14       29.82R
MERRILL        NOT AVBL
$$

WIZ029-030-035-036-043>047-211100-
CENTRAL WISCONSIN

CITY           SKY/WX    TMP DP  RH WIND       PRES   REMARKS
WAUSAU         CLOUDY    44  42  93 W13       29.81R
MOSINEE        CLOUDY    43  43 100 W13       29.84R
MARSHFIELD     CLOUDY    44  40  85 W14       29.84R
STEVENS POINT  CLOUDY    46  45  96 W8G18     29.84R
WAUPACA        CLOUDY    51  50  94 W12       29.82R
WAUTOMA        CLOUDY    50  46  86 W13       29.84R
WISC RAPIDS    CLOUDY    48  46  93 W12       29.86R
CAMP DOUGLAS   MOCLDY    45  43  93 W10G20    29.88R
$$

WIZ011>013-019>022-031-037>040-048>050-211100-
NORTHEAST WISCONSIN

CITY           SKY/WX    TMP DP  RH WIND       PRES   REMARKS
ANTIGO         CLOUDY    44  44 100 W14G22    29.79R
SHAWANO        CLOUDY    53  51  94 W8G18     29.79R
OCONTO         CLOUDY    53  51  94 SW10      29.76R
STURGEON BAY   CLOUDY    44  43  96 S12       29.76R FOG
GREEN BAY      CLOUDY    52  52 100 SW8       29.78R
MANITOWOC      CLOUDY    43  41  93 MISG      29.81R FOG
APPLETON       CLOUDY    52  50  93 W20G31    29.81R
CLINTONVILLE   CLOUDY    50  46  87 W8        29.81R
OSHKOSH        MOCLDY    54  52  93 SW8       29.81R
$$

WIZ032>034-041-042-053>061-211100-
SOUTHWEST WISCONSIN

CITY           SKY/WX    TMP DP  RH WIND       PRES   REMARKS
LA CROSSE      PTCLDY    40  37  89 NW3       29.90S
SPARTA         CLOUDY    44  42  92 W5        29.91R
VIROQUA        CLOUDY    42  42  97 W8        29.90R
BOSCOBEL       CLOUDY    45  42  89 SW6       29.92R
PRAIRIE DU CHI CLOUDY    42  39  88 W7        29.93R
PLATTEVILLE    MOCLDY    46  46 100 W8        29.90S
$$

WIZ056-057-062-063-064-067-068-211100-
SOUTH CENTRAL WISCONSIN

CITY           SKY/WX    TMP DP  RH WIND       PRES   REMARKS
REEDSBURG      CLOUDY    46  46  99 W8        29.89R
BARABOO/DELLS  CLOUDY    48  44  87 W8        29.87R
LONE ROCK      CLOUDY    47  45  93 W7        29.89R
MINERAL POINT  CLOUDY    46  46 100 W9        29.89R
MADISON        CLOUDY    53  51  93 VRB5      29.86R
MIDDLETON        N/A     54  51  90 W12       29.87R
WATERTOWN      CLOUDY    53  53 100 SW9       29.85R
MONROE         CLOUDY    54  52  94 W15G23    29.88R FOG
JANESVILLE     CLOUDY    54  54 100 SW7       29.87R
$$

WIZ051-052-058>065-066-070>072-211100-
SOUTHEAST WISCONSIN

CITY           SKY/WX    TMP DP  RH WIND       PRES   REMARKS
MILWAUKEE      CLOUDY    55  52  89 S9        29.83F
WAUKESHA       CLOUDY    52  52 100 SW9       29.85R
MILWAUKEE/TIMM CLOUDY    54  50  87 SW6       29.85R
RACINE         LGT RAIN  54  50  86 S9        29.86F
KENOSHA        LGT RAIN  55  51  86 S13       29.84F
FOND DU LAC    CLOUDY    54  51  90 SW10      29.81S
SHEBOYGAN      FOG       47  45  93 SW8       29.82R VSB 1/4
WEST BEND      CLOUDY    52  52 100 SW7       29.83S
JUNEAU         CLOUDY    53  53  99 SW13      29.85R FOG
$$

LSZ147-162-211100-
LAKE SUPERIOR

STATION/POSITION TIME  TEMP    WIND        PRES    WAVE
                       AIR SEA DIR/SP/G            HT/PER
                 (UTC) (F)     (DEG/KT/KT) (MB)    (FT/S)
DEVILS ISLAND    1000   36     240/ 24/ 29 1007.4R
PORT WING        0930   38     240/ 12/ 18 1008.8R
SAXON HARBOR     0930   42     220/  4/ 15 1007.8R
$$

LMZ867-665-643>646-211100-
LAKE MICHIGAN

STATION/POSITION TIME  TEMP    WIND        PRES    WAVE
                       AIR SEA DIR/SP/G            HT/PER
                 (UTC) (F)     (DEG/KT/KT) (MB)    (FT/S)
CHAMBERS ISLAND  0940   44     160/  9/ 18 1006.4S
NORTHPORT PIER   0940   43     170/  8/ 14 1007.1S
SISTER BAY       0850   43     180/ 19/ 24   N/A
KEWAUNEE LAKESHO 0954   40     190/ 11/ 12 1008.0S
SHEBOYGAN LAKESH 1000   43     190/ 10/ 12 1009.8R
PORT WASHINGTON  0940   44      CALM  / 10 1011.2S
MILWAUKEE LAKESH 0950   49     190/  7/  9   N/A
KENOSHA   LAKESH 1000   55     190/  9/ 14 1010.5
$$

TC  - TEMPERATURE IN CELSIUS
VSB - VISIBILITY IN STATUTE MILES
WCI - WIND CHILL INDEX
HX  - HEAT INDEX





USA.gov is the U.S. government's official web portal to all federal, state and local government web resources and services.